Flag for Kenya Weather past 2 weeks in Nairobi, Kenya

Now
75 °F

Partly sunny.


Feels Like: 78 °F
Forecast: 56 / 66 °F
Wind: 12 mph from Southeast

Location: Nairobi / Wilson

Current Time: Sep 3, 2015 at 6:26:21 PM

Latest Report: Sep 3, 2015 at 5:00 PM


Visibility: N/A

Pressure: 30.09 "Hg (24.80 "Hg at 1680m altitude)

Humidity: 47%

Dew point: 54 °F

Location of NairobiLocation

Historic Weather in Nairobi — Graph

°F

Nairobi temperature yesterday

Maximum temperature yesterday: 77 °F (at 3:00 PM)
Minimum temperature yesterday: 59 °F (at 6:00 AM)
Average temperature yesterday: 69 °F

Past Weeks' High & Low Weather Summary

 TemperatureHumidityPressure
High79 °F (Aug 28, 3:00 PM)100% (Aug 23, 8:00 AM)30.30 "Hg (Aug 23, 8:00 AM)
Low50 °F (Aug 24, 6:00 AM)30% (Aug 28, 3:00 PM)30.07 "Hg (Aug 19, 5:00 PM)
Average68 °F61%30.19 "Hg
* Reported Aug 19 5:00 PM — Sep 3 5:00 PM, Nairobi, Weather by CustomWeather, © 2015

Note: Actual official high and low records may vary slightly from our data, if they occured in-between our weather recording intervals... More about our weather records

Advertising

Nairobi weather history for previous 24 hours

 ConditionsComfort  
Time TempWeatherWind HumidityBarometerVisibility
5:00 PM
Thu, Sep 3
75 °FPartly sunny.12 mph47%30.09 "HgN/A
4:00 PM77 °FPartly sunny.12 mph42%30.12 "HgN/A
3:00 PM77 °FPartly sunny.12 mph44%30.12 "HgN/A
2:00 PM77 °FPartly sunny.12 mph47%30.15 "HgN/A
1:00 PM73 °FPartly sunny.12 mph53%30.18 "HgN/A
12:00 PM72 °FPartly sunny.No wind57%30.21 "HgN/A
11:00 AM70 °FPartly sunny.No wind60%30.21 "HgN/A
10:00 AM66 °FBroken clouds.No wind68%30.24 "HgN/A
9:00 AM63 °FPartly sunny.No wind77%30.24 "HgN/A
8:00 AM61 °FPartly sunny.No wind83%30.21 "HgN/A
6:00 AM55 °FPassing clouds.No wind88%30.18 "HgN/A
10:00 PM
Wed, Sep 2
64 °FPassing clouds.No wind73%30.21 "HgN/A
9:00 PM68 °FPassing clouds.6 mph64%30.18 "HgN/A
8:00 PM70 °FPassing clouds.9 mph53%30.15 "HgN/A
7:00 PM72 °FPassing clouds.12 mph61%30.15 "HgN/A
6:00 PM73 °FPartly sunny.12 mph53%30.12 "HgN/A
Weather by CustomWeather, © 2015

See weather overviewHow to use our weather pages